Regional Weather Roundup
Issued by NWS

Home | Current Version | Previous Version | Text Only | Print | Product List | Glossary On
Versions: 1 2 3 4 5 6 7 8 9 10 11 12 13 14 15 16 17 18 19 20 21 22 23 24 25 26 27 28 29 30 31 32 33 34 35 36 37 38 39 40 41 42 43 44 45 46 47 48 49 50
000
ASUS43 KLSX 281859
RWRMO

WEATHER SUMMARY FOR MISSOURI
NATIONAL WEATHER SERVICE SPRINGFIELD MO
200 PM CDT WED JUN 28 2017

NOTE: "FAIR" INDICATES FEW OR NO CLOUDS BELOW 12,000 FEET WITH NO
       SIGNIFICANT WEATHER AND/OR OBSTRUCTIONS TO VISIBILITY.
       CURRENT SKY AND/OR WEATHER CONDITIONS ARE NOT AVAILABLE FOR
       CHILLICOTHE AND FARMINGTON.

MOZ001>031-035>038-043-044-053-054-282000-
...NORTHERN AND WESTERN MISSOURI...

CITY           SKY/WX    TMP DP  RH WIND       PRES   REMARKS
KANSAS CTY INT MOSUNNY   87  71  58 SW24G36   29.78F HX  93
KANSAS C DTWN  SUNNY     89  71  55 S22G30    29.78F HX  95
LEE`S SUMMIT   PTSUNNY   87  71  58 S18G29    29.82F HX  93
ST JOSEPH      MOSUNNY   87  73  62 S18G28    29.74F HX  94
CHILLICOTHE      N/A     85  71  63 S17G25    29.80F HX  90
KIRKSVILLE     CLOUDY    84  71  65 S16       29.83F

$$
MOZ066>068-077>081-088>096-101>105-282000-
...SOUTHWEST MISSOURI...

CITY           SKY/WX    TMP DP  RH WIND       PRES   REMARKS
SPRINGFIELD    SUNNY     84  69  60 S20       29.93F
JOPLIN         SUNNY     88  71  57 S21G32    29.88F HX  94
BRANSON        PTSUNNY   84  66  54 S9        29.99F

$$
MOZ032>034-039>042-045>050-055>058-069>072-282000-
...CENTRAL MISSOURI...

CITY           SKY/WX    TMP DP  RH WIND       PRES   REMARKS
COLUMBIA       SUNNY     84  69  60 S21G29    29.87F
JEFFERSON CITY SUNNY     85  66  53 S16G30    29.87F
ROLLA          MOSUNNY   85  65  51 S17G26    29.94F
SEDALIA        MOSUNNY   86  73  65 S17G29    29.88S HX  93
WARRENSBURG    MOSUNNY   86  68  54 S15G25    29.83F
OSAGE BEACH    MOSUNNY   86  69  56 S15       29.91F HX  90

$$
MOZ051-052-059>065-282000-
...EAST CENTRAL MISSOURI...

CITY           SKY/WX    TMP DP  RH WIND       PRES   REMARKS
ST LOUIS INTL  CLOUDY    88  60  38 SW20G28   29.94F
SPIRIT OF STL  PTSUNNY   84  64  50 S14G22    29.93F
ST CHARLES     CLOUDY    85  63  47 S20G26    29.92F

$$
MOZ072>076-082>087-097>100-106>115-282000-
...SOUTH CENTRAL AND SOUTHEAST MISSOURI...

CITY           SKY/WX    TMP DP  RH WIND       PRES   REMARKS
CAPE GIRARDEAU CLOUDY    83  63  50 S12G21    30.00F
FARMINGTON     CLOUDY    83  65  54 S14       30.00F
POPLAR BLUFF   CLOUDY    83  69  62 S13       30.00F
WEST PLAINS    MOSUNNY   83  63  50 S16       30.01F

$$




USA.gov is the U.S. government's official web portal to all federal, state and local government web resources and services.